Volver al catálogo

STARLINK-5738

ActivoComunicacionesVLEO
NORAD 55573·PAYLOAD·🇺🇸 United States

Lanzado Feb 12, 2023 desde Cape Canaveral Space Force Station

Loading…

Próximos Pases (próximas 24 horas)

TLE

ActualizadoSource: CelesTrak SupGP

Época: Sep 14, 2026, 21:42 UTC

1 55573C 23020E   26257.90465278  .00001690  00000+0  61210-4 0  2571
2 55573  43.0041  19.9383 0001379 272.2508  23.8542 15.27581311    17

Sigue STARLINK-5738 en tiempo real con AllMySat

Download on the App Store